When you browse on this site, cookies collect data to enhance your experience and personalize the content and advertising you see.
Visit our Privacy Policy to learn more. By continuing to use the site, you agree to this use of cookies and data.
  • In United Kingdom
  • List of Countries
  • For 7 days
  • Water Temperature
  • Satellite Maps
  • Weather Map
  • Weather Widgets
  • user-avatar
    Login

    Hourly Weather Al-Ahmadi

    Today, 20 July, Saturday

    Time Temperature Precipitation Wind Pressure Humidity
    00:00 +38°C° 0 mm 8 mps 741 mmHg 15%
    01:00 +38°C° 0 mm 9 mps 741 mmHg 17%
    02:00 +37°C° 0 mm 9 mps 741 mmHg 18%
    03:00 +37°C° 0 mm 10 mps 740 mmHg 20%
    04:00 +37°C° 0 mm 9 mps 741 mmHg 22%
    05:00 +37°C° 0 mm 8 mps 741 mmHg 23%
    06:00 +35°C° 0 mm 8 mps 742 mmHg 24%
    07:00 +38°C° 0 mm 8 mps 742 mmHg 22%
    08:00 +40°C° 0 mm 9 mps 742 mmHg 20%
    09:00 +43°C° 0 mm 9 mps 742 mmHg 18%
    10:00 +45°C° 0 mm 8 mps 742 mmHg 16%
    11:00 +46°C° 0 mm 8 mps 742 mmHg 14%
    12:00 +49°C° 0 mm 7 mps 742 mmHg 12%
    13:00 +50°C° 0 mm 7 mps 741 mmHg 11%
    14:00 +50°C° 0 mm 7 mps 741 mmHg 10%
    15:00 +51°C° 0 mm 7 mps 740 mmHg 10%
    16:00 +49°C° 0 mm 6 mps 740 mmHg 11%
    17:00 +49°C° 0 mm 6 mps 740 mmHg 11%
    18:00 +48°C° 0 mm 6 mps 740 mmHg 12%
    19:00 +47°C° 0 mm 6 mps 740 mmHg 13%
    20:00 +45°C° 0 mm 6 mps 740 mmHg 14%
    21:00 +42°C° 0 mm 6 mps 740 mmHg 15%
    22:00 +41°C° 0 mm 6 mps 741 mmHg 15%
    23:00 +41°C° 0 mm 6 mps 741 mmHg 16%

    Tomorrow, 21 July, Sunday

    Time Temperature Precipitation Wind Pressure Humidity
    00:00 +40°C° 0 mm 7 mps 741 mmHg 16%
    01:00 +39°C° 0 mm 7 mps 741 mmHg 17%
    02:00 +39°C° 0 mm 7 mps 740 mmHg 17%
    03:00 +38°C° 0 mm 7 mps 740 mmHg 18%
    04:00 +38°C° 0 mm 7 mps 740 mmHg 18%
    05:00 +38°C° 0 mm 7 mps 741 mmHg 18%
    06:00 +38°C° 0 mm 7 mps 741 mmHg 18%
    07:00 +40°C° 0 mm 7 mps 741 mmHg 17%
    08:00 +41°C° 0 mm 8 mps 741 mmHg 16%
    09:00 +44°C° 0 mm 8 mps 741 mmHg 14%
    10:00 +46°C° 0 mm 7 mps 741 mmHg 13%
    11:00 +49°C° 0 mm 7 mps 741 mmHg 11%
    12:00 +51°C° 0 mm 6 mps 741 mmHg 9%
    13:00 +52°C° 0 mm 5 mps 740 mmHg 8%
    14:00 +52°C° 0 mm 5 mps 740 mmHg 8%
    15:00 +52°C° 0 mm 4 mps 739 mmHg 7%
    16:00 +50°C° 0 mm 3 mps 739 mmHg 8%
    17:00 +48°C° 0 mm 2 mps 739 mmHg 8%
    18:00 +43°C° 0 mm 0 mps 738 mmHg 8%
    19:00 +44°C° 0 mm 1 mps 739 mmHg 10%
    20:00 +43°C° 0 mm 2 mps 739 mmHg 11%
    21:00 +42°C° 0 mm 3 mps 740 mmHg 12%
    22:00 +40°C° 0 mm 3 mps 740 mmHg 13%
    23:00 +39°C° 0 mm 2 mps 740 mmHg 14%

    Day after tomorrow, 22 July, Monday

    Time Temperature Precipitation Wind Pressure Humidity
    00:00 +38°C° 0 mm 2 mps 740 mmHg 15%
    01:00 +38°C° 0 mm 3 mps 739 mmHg 16%
    02:00 +38°C° 0 mm 3 mps 739 mmHg 16%
    03:00 +38°C° 0 mm 4 mps 739 mmHg 16%
    04:00 +38°C° 0 mm 4 mps 739 mmHg 17%
    05:00 +37°C° 0 mm 5 mps 739 mmHg 18%
    06:00 +38°C° 0 mm 6 mps 739 mmHg 20%
    07:00 +40°C° 0 mm 5 mps 740 mmHg 18%
    08:00 +42°C° 0 mm 5 mps 740 mmHg 16%
    09:00 +44°C° 0 mm 4 mps 740 mmHg 14%
    10:00 +44°C° 0 mm 4 mps 740 mmHg 16%
    11:00 +44°C° 0 mm 4 mps 740 mmHg 17%
    12:00 +45°C° 0 mm 4 mps 740 mmHg 19%
    13:00 +45°C° 0 mm 4 mps 739 mmHg 21%
    14:00 +45°C° 0 mm 3 mps 739 mmHg 22%
    15:00 +45°C° 0 mm 3 mps 738 mmHg 23%
    16:00 +44°C° 0 mm 3 mps 738 mmHg 25%
    17:00 +44°C° 0 mm 3 mps 738 mmHg 26%
    18:00 +43°C° 0 mm 3 mps 738 mmHg 28%
    19:00 +41°C° 0 mm 4 mps 738 mmHg 35%
    20:00 +37°C° 0 mm 4 mps 739 mmHg 43%
    21:00 +35°C° 0 mm 5 mps 739 mmHg 51%
    22:00 +35°C° 0 mm 4 mps 739 mmHg 53%
    23:00 +34°C° 0 mm 4 mps 739 mmHg 55%

    23 July, Tuesday

    Time Temperature Precipitation Wind Pressure Humidity
    00:00 +34°C° 0 mm 4 mps 738 mmHg 57%
    01:00 +34°C° 0 mm 4 mps 738 mmHg 52%
    02:00 +34°C° 0 mm 3 mps 738 mmHg 47%
    03:00 +35°C° 0 mm 2 mps 738 mmHg 41%
    04:00 +35°C° 0 mm 2 mps 738 mmHg 35%
    05:00 +36°C° 0 mm 2 mps 738 mmHg 29%
    06:00 +37°C° 0 mm 2 mps 739 mmHg 24%
    07:00 +39°C° 0 mm 2 mps 739 mmHg 22%
    08:00 +41°C° 0 mm 2 mps 739 mmHg 20%
    09:00 +43°C° 0 mm 2 mps 739 mmHg 18%
    10:00 +45°C° 0 mm 2 mps 739 mmHg 18%
    11:00 +46°C° 0 mm 3 mps 739 mmHg 17%
    12:00 +47°C° 0 mm 3 mps 738 mmHg 17%
    13:00 +47°C° 0 mm 3 mps 738 mmHg 15%
    14:00 +48°C° 0 mm 3 mps 738 mmHg 14%
    15:00 +50°C° 0 mm 3 mps 737 mmHg 13%
    16:00 +48°C° 0 mm 3 mps 737 mmHg 14%
    17:00 +47°C° 0 mm 2 mps 737 mmHg 14%
    18:00 +47°C° 0 mm 2 mps 737 mmHg 15%
    19:00 +43°C° 0 mm 1 mps 737 mmHg 17%
    20:00 +41°C° 0 mm 1 mps 738 mmHg 19%
    21:00 +36°C° 0 mm 0 mps 738 mmHg 22%
    22:00 +39°C° 0 mm 1 mps 738 mmHg 21%
    23:00 +40°C° 0 mm 3 mps 738 mmHg 20%

    24 July, Wednesday

    Time Temperature Precipitation Wind Pressure Humidity
    00:00 +41°C° 0 mm 4 mps 738 mmHg 20%
    01:00 +39°C° 0 mm 3 mps 738 mmHg 21%
    02:00 +38°C° 0 mm 3 mps 738 mmHg 22%
    03:00 +37°C° 0 mm 3 mps 738 mmHg 23%
    04:00 +38°C° 0 mm 3 mps 738 mmHg 20%
    05:00 +38°C° 0 mm 3 mps 738 mmHg 17%
    06:00 +38°C° 0 mm 2 mps 738 mmHg 14%
    07:00 +40°C° 0 mm 2 mps 739 mmHg 12%
    08:00 +42°C° 0 mm 2 mps 739 mmHg 10%
    09:00 +45°C° 0 mm 2 mps 739 mmHg 8%
    10:00 +46°C° 0 mm 3 mps 739 mmHg 9%
    11:00 +48°C° 0 mm 4 mps 738 mmHg 10%
    12:00 +49°C° 0 mm 5 mps 738 mmHg 11%
    13:00 +49°C° 0 mm 5 mps 738 mmHg 13%
    14:00 +49°C° 0 mm 5 mps 738 mmHg 16%
    15:00 +49°C° 0 mm 5 mps 737 mmHg 18%
    16:00 +48°C° 0 mm 6 mps 737 mmHg 21%
    17:00 +46°C° 0 mm 6 mps 737 mmHg 24%
    18:00 +45°C° 0 mm 7 mps 737 mmHg 27%
    19:00 +44°C° 0 mm 6 mps 737 mmHg 28%
    20:00 +41°C° 0 mm 5 mps 738 mmHg 29%
    21:00 +40°C° 0 mm 4 mps 738 mmHg 29%
    22:00 +38°C° 0 mm 4 mps 738 mmHg 34%
    23:00 +37°C° 0 mm 5 mps 738 mmHg 39%

    25 July, Thursday

    Time Temperature Precipitation Wind Pressure Humidity
    00:00 +36°C° 0 mm 5 mps 738 mmHg 44%
    01:00 +36°C° 0 mm 5 mps 738 mmHg 43%
    02:00 +35°C° 0 mm 5 mps 738 mmHg 43%
    03:00 +35°C° 0 mm 4 mps 738 mmHg 43%
    04:00 +35°C° 0 mm 4 mps 738 mmHg 44%
    05:00 +35°C° 0 mm 4 mps 738 mmHg 45%
    06:00 +35°C° 0 mm 4 mps 739 mmHg 46%
    07:00 +37°C° 0 mm 4 mps 739 mmHg 39%
    08:00 +40°C° 0 mm 3 mps 739 mmHg 32%
    09:00 +42°C° 0 mm 2 mps 740 mmHg 26%
    10:00 +45°C° 0 mm 3 mps 739 mmHg 25%
    11:00 +47°C° 0 mm 4 mps 739 mmHg 24%
    12:00 +48°C° 0 mm 5 mps 739 mmHg 24%
    13:00 +48°C° 0 mm 5 mps 739 mmHg 23%
    14:00 +48°C° 0 mm 5 mps 738 mmHg 22%
    15:00 +48°C° 0 mm 5 mps 738 mmHg 22%
    16:00 +47°C° 0 mm 4 mps 738 mmHg 23%
    17:00 +45°C° 0 mm 4 mps 737 mmHg 25%
    18:00 +44°C° 0 mm 4 mps 737 mmHg 26%
    19:00 +43°C° 0 mm 3 mps 738 mmHg 26%
    20:00 +42°C° 0 mm 3 mps 738 mmHg 25%
    21:00 +40°C° 0 mm 3 mps 738 mmHg 24%
    22:00 +39°C° 0 mm 3 mps 738 mmHg 31%
    23:00 +37°C° 0 mm 4 mps 738 mmHg 38%
    Show more